Flag for U.S.A. Weather past 2 weeks in Asheville, North Carolina, U.S.A.

Now
64 °F

Clear.


Feels Like: 64 °F
Forecast: 60 / 77 °F
Wind: No wind

Location: Asheville Regional Airport

Current Time: Aug 30, 2015 at 6:50:17 AM

Latest Report: Aug 30, 2015 at 5:54 AM


Visibility: 10 mi

Pressure: 30.14 "Hg (27.94 "Hg at 647m altitude)

Humidity: 90%

Dew point: 61 °F

Location of AshevilleLocation

Historic Weather in Asheville — Graph

°F

Asheville temperature yesterday

Maximum temperature yesterday: 81 °F (at 2:54 PM)
Minimum temperature yesterday: 58 °F (at 5:54 AM)
Average temperature yesterday: 69 °F

Past Weeks' High & Low Weather Summary

 TemperatureHumidityPressure
High86 °F (Aug 24, 3:54 PM)97% (Aug 16, 5:03 AM)30.26 "Hg (Aug 16, 5:03 AM)
Low57 °F (Aug 28, 6:54 AM)34% (Aug 25, 5:54 PM)29.88 "Hg (Aug 24, 4:54 PM)
Average71 °F73%30.06 "Hg
* Reported Aug 15 5:54 AM — Aug 30 5:54 AM, Asheville, Weather by CustomWeather, © 2015

Note: Actual official high and low records may vary slightly from our data, if they occured in-between our weather recording intervals... More about our weather records

Advertising

Asheville weather history for previous 24 hours

 ConditionsComfort  
Time TempWeatherWind HumidityBarometerVisibility
5:54 AM
Sun, Aug 30
64 °FClear.No wind90%30.14 "Hg10 mi
4:54 AM65 °FClear.No wind87%30.13 "Hg10 mi
3:54 AM65 °FClear.No wind87%30.12 "Hg10 mi
2:54 AM67 °FClear.No wind79%30.12 "Hg10 mi
1:54 AM66 °FClear.No wind84%30.14 "Hg10 mi
12:54 AM68 °FClear.No wind78%30.14 "Hg10 mi
11:54 PM
Sat, Aug 29
69 °FClear.5 mph73%30.15 "Hg10 mi
10:54 PM70 °FClear.5 mph71%30.16 "Hg10 mi
9:54 PM71 °FClear.5 mph66%30.17 "Hg10 mi
8:54 PM72 °FSunny.3 mph66%30.15 "Hg10 mi
7:54 PM73 °FSunny.6 mph62%30.15 "Hg10 mi
6:54 PM75 °FSunny.7 mph55%30.14 "Hg10 mi
5:54 PM77 °FPassing clouds.9 mph47%30.14 "Hg10 mi
4:54 PM79 °FSunny.9 mph42%30.14 "Hg10 mi
3:54 PM80 °FSunny.9 mph39%30.15 "Hg10 mi
2:54 PM81 °FPassing clouds.6 mph38%30.17 "Hg10 mi
1:54 PM80 °FBroken clouds.6 mph42%30.20 "Hg10 mi
12:54 PM79 °FSunny.8 mph44%30.21 "Hg10 mi
11:54 AM76 °FPassing clouds.6 mph50%30.23 "Hg10 mi
10:54 AM71 °FPassing clouds.No wind68%30.24 "Hg10 mi
9:54 AM65 °FSunny.No wind81%30.24 "Hg10 mi
8:54 AM62 °FSunny.No wind83%30.24 "Hg10 mi
7:54 AM58 °FClear.No wind93%30.24 "Hg8 mi
6:54 AM58 °FClear.No wind90%30.22 "Hg10 mi
Weather by CustomWeather, © 2015

See weather overviewHow to use our weather pages